www.pogodaiklimat.ru

Погода и климат >> Архив погоды >> Австралия >> Onslow Airport


ПОГОДА в Onslow Airport

  • Прогноз погоды в Onslow Airport
  • Монитор погоды в Onslow Airport
  • Климат города

АРХИВ ПОГОДЫ в Onslow Airport

Время (UTC), дата Ветер
(напр.,м/с)
 
Видим.   Явления Облачность Т
(С)
Тd
(С)
f
(%)
Тe
(С)
Тes
(С)
Комфортность P
(гПа)
Po
(гПа)
Тmin
(С)
Tmax
(С)
R
(мм)
R24
(мм)
S
(см)
01 16.10 ЮЗ 6 н/о н/о +24.9 +13.8 50 +27 +27 жарко 1013.3 1012.0 +18.4
03 16.10 ЮЗ 6 н/о н/о +27.7 +12.9 40 +29 +29 жарко 1012.6 1011.3
04 16.10 З 10 н/о н/о +27.7 +15.7 48 +31 +31 душно 1011.8 1010.5
06 16.10 З 11 н/о н/о +26.9 +15.9 51 +30 +30 душно 1010.4 1009.1
07 16.10 З 11 н/о н/о +26.4 +16.6 55 +30 +30 душно 1010.1 1008.8
09 16.10 З 9 н/о н/о +26.3 +17.9 60 +31 +31 душно 1009.5 1008.2
10 16.10 ЮЗ 9 н/о 1/0
[]
+26.6 +15.0 49 +29 +29 жарко 1010.2 1008.9
12 16.10 ЮЗ 10 н/о н/о +23.7 +14.9 58 +27 +27 жарко 1011.9 1010.6
13 16.10 ЮЗ 9 н/о н/о +22.6 +13.7 57 +26 +26 жарко 1012.4 1011.1 +29.7
15 16.10 ЮЗ 10 н/о н/о +20.7 +12.1 58 +22 +22 комфорт 1012.5 1011.2
16 16.10 ЮЗ 10 н/о н/о +19.8 +10.5 55 +20 +20 1012.1 1010.8
18 16.10 ЮЗ 8 н/о н/о +18.1 +9.2 56 +17 +17 1011.8 1010.5
19 16.10 ЮЗ 8 н/о н/о +17.4 +9.1 58 +16 +16 1011.7 1010.4
21 16.10 ЮЗ 8 н/о н/о +16.5 +8.7 60 +15 +15 1012.6 1011.3
22 16.10 ЮЗ 7 н/о н/о +15.9 +8.6 62 +14 +14 1013.2 1011.9
00 17.10 Ю 10 н/о н/о +20.1 +8.8 48 +21 +21 комфорт 1014.4 1013.1
01 17.10 Ю 9 н/о н/о +21.7 +7.9 41 +23 +23 комфорт 1014.6 1013.3 +16.0
03 17.10 Ю 6 н/о н/о +24.9 +6.6 31 +25 +25 комфорт 1013.6 1012.3
04 17.10 ЮЗ 6 н/о н/о +26.4 +5.9 27 +26 +26 жарко 1012.7 1011.4
06 17.10 ЮЗ 7 н/о н/о +28.5 +4.7 22 +27 +27 жарко 1010.9 1009.6
07 17.10 ЮЗ 8 н/о н/о +30.5 +5.0 20 +29 +29 жарко 1010.2 1008.9
09 17.10 З 10 н/о н/о +25.6 +12.8 45 +27 +27 жарко 1010.4 1009.1
10 17.10 ЮЗ 10 н/о н/о +25.4 +10.8 40 +26 +26 жарко 1010.9 1009.6
12 17.10 ЮЗ 10 н/о н/о +22.5 +12.4 53 +25 +25 комфорт 1012.8 1011.5
13 17.10 ЮЗ 11 н/о н/о +21.3 +12.4 57 +24 +24 комфорт 1013.4 1012.1 +30.8
15 17.10 ЮЗ 9 н/о н/о +20.0 +11.2 57 +21 +21 комфорт 1013.7 1012.4
16 17.10 ЮЗ 8 н/о н/о +19.3 +10.3 56 +20 +20 1013.4 1012.1
18 17.10 Ю 8 н/о н/о +18.6 +9.7 56 +18 +18 1012.8 1011.5
19 17.10 Ю 9 н/о н/о +18.2 +9.5 57 +17 +17 1012.9 1011.6
21 17.10 Ю 8 н/о н/о +17.4 +9.6 60 +16 +16 1014.0 1012.7
22 17.10 Ю 8 н/о н/о +17.2 +9.4 60 +16 +16 1014.7 1013.4
00 18.10 Ю 9 н/о н/о +21.3 +8.9 45 +23 +23 комфорт 1015.7 1014.4
01 18.10 Ю 9 н/о н/о +23.6 +8.1 37 +24 +24 комфорт 1015.7 1014.4 +17.1
03 18.10 Ю 8 н/о н/о +28.5 +7.1 26 +28 +28 жарко 1014.6 1013.3
04 18.10 Ю 8 н/о н/о +30.4 +5.6 21 +29 +29 жарко 1013.6 1012.3
06 18.10 Ю 7 н/о н/о +33.5 +3.3 15 +31 +31 жарко 1011.4 1010.1
07 18.10 Ю 7 н/о н/о +33.5 +2.4 14 +30 +30 жарко 1010.6 1009.3
09 18.10 Ю 7 н/о н/о +33.2 +3.1 15 +30 +30 жарко 1010.5 1009.2
10 18.10 Ю 6 н/о н/о +31.4 +4.2 18 +29 +29 жарко 1011.1 1009.8
12 18.10 Ю 4 н/о н/о +26.5 +6.0 27 +26 +26 жарко 1012.3 1011.0
13 18.10 ЮЗ 5 н/о н/о +25.4 +4.5 26 +25 +25 комфорт 1013.0 1011.7 +34.9
15 18.10 Ю 5 н/о н/о +23.6 +4.5 29 +23 +23 комфорт 1013.0 1011.7
16 18.10 Ю 5 н/о н/о +22.6 +4.2 30 +23 +23 комфорт 1012.3 1011.0
18 18.10 ЮЗ 5 н/о н/о +20.4 +3.6 33 +21 +21 комфорт 1011.4 1010.1
19 18.10 ЮЗ 6 н/о н/о +20.0 +3.3 33 +20 +20 1011.3 1010.0
21 18.10 Ю 6 н/о н/о +19.4 +2.7 33 +19 +19 1011.7 1010.4
22 18.10 Ю 5 н/о н/о +18.5 +2.8 35 +18 +18 1012.1 1010.8
00 19.10 ЮВ 6 н/о н/о +27.0 +1.4 19 +25 +25 комфорт 1013.2 1011.9
01 19.10 ЮВ 6 н/о н/о +30.8 -0.8 13 +28 +28 жарко 1013.2 1011.9 +18.5
03 19.10 С 3 н/о н/о +34.7 -1.4 10 +31 +31 жарко 1012.8 1011.5
04 19.10 С 6 н/о н/о +33.7 +0.4 12 +30 +30 жарко 1012.6 1011.3
06 19.10 СЗ 7 н/о н/о +34.5 +2.1 13 +31 +31 жарко 1012.2 1010.9
07 19.10 СЗ 6 н/о н/о +32.9 +1.9 14 +30 +30 жарко 1011.7 1010.4
09 19.10 З 6 н/о н/о +31.0 +6.8 22 +30 +30 жарко 1012.0 1010.7
10 19.10 З 6 н/о н/о +28.5 +8.7 29 +28 +28 жарко 1012.7 1011.4
12 19.10 З 4 н/о н/о +25.1 +7.3 32 +25 +25 комфорт 1014.3 1013.0
13 19.10 З 4 н/о н/о +23.9 +10.9 44 +25 +25 комфорт 1014.6 1013.3 +35.9
15 19.10 ЮЗ 4 н/о н/о +22.8 +8.9 41 +24 +24 комфорт 1014.2 1012.9
16 19.10 З 7 н/о н/о +24.1 +11.8 46 +26 +26 жарко 1013.2 1011.9
18 19.10 Ю 4 н/о н/о +20.3 +13.7 66 +23 +23 комфорт 1013.1 1011.8
19 19.10 Ю 4 н/о н/о +20.2 +14.1 68 +23 +23 комфорт 1013.1 1011.8
21 19.10 Ю 4 н/о н/о +18.7 +13.8 73 +20 +20 1013.4 1012.1
22 19.10 В 5 н/о н/о +18.5 +13.4 72 +19 +19 1014.4 1013.1
00 20.10 Ю 3 н/о н/о +25.8 +9.6 36 +26 +26 жарко 1015.4 1014.1
01 20.10 В 2 н/о н/о +29.4 +7.9 26 +29 +29 жарко 1015.6 1014.3 +17.9
03 20.10 СЗ 4 н/о н/о +34.8 +8.5 20 +33 +33 жарко 1014.9 1013.6
04 20.10 СЗ 6 н/о н/о +32.5 +11.6 28 +33 +33 жарко 1014.5 1013.2
06 20.10 З 8 н/о н/о +33.6 +10.2 24 +33 +33 жарко 1012.9 1011.6
07 20.10 З 7 н/о н/о +33.7 +9.7 23 +33 +33 жарко 1013.0 1011.7
09 20.10 З 6 н/о н/о +32.2 +13.4 32 +33 +33 жарко 1012.7 1011.4
10 20.10 З 5 н/о н/о +28.6 +16.5 48 +32 +32 душно 1013.3 1012.0
12 20.10 З 6 н/о н/о +27.0 +14.1 45 +29 +29 жарко 1014.3 1013.0
13 20.10 ЮЗ 6 н/о 6/0
[]
+27.6 +13.9 43 +30 +30 жарко 1014.4 1013.1 +35.5
15 20.10 ЮЗ 6 н/о н/о +27.1 +10.3 35 +28 +28 жарко 1013.4 1012.1
16 20.10 Ю 5 н/о 10/0
[]
+26.7 +9.5 34 +27 +27 жарко 1013.6 1012.3
18 20.10 ЮЗ 5 н/о н/о +25.1 +12.0 44 +27 +27 жарко 1013.0 1011.7
19 20.10 ЮЗ 4 н/о 9/0
[]
+24.6 +12.2 46 +26 +26 жарко 1012.8 1011.5
21 20.10 ЮЗ 5 н/о н/о +23.7 +12.7 50 +26 +26 жарко 1013.3 1012.0
22 20.10 ЮЗ 6 н/о 9/0
[]
+23.6 +14.3 56 +26 +26 жарко 1013.9 1012.6
00 21.10 Ю 6 н/о н/о +29.3 +12.7 36 +30 +30 жарко 1014.4 1013.1
01 21.10 Ю 6 н/о н/о +34.4 +8.9 21 +33 +33 жарко 1014.0 1012.7 +23.6
03 21.10 Ю 6 н/о н/о +39.1 +13.2 22 +36 +36 очень
жарко
1012.8 1011.5
04 21.10 ЮЗ 4 н/о н/о +40.6 +3.1 10 +37 +37 очень
жарко
1011.9 1010.6
06 21.10 З 7 н/о н/о +38.9 +15.3 25 +40 +40 очень
душно
1010.3 1009.0
07 21.10 З 9 н/о н/о +34.1 +16.9 36 +37 +37 очень
душно
1009.9 1008.6
09 21.10 З 7 н/о н/о +31.2 +19.9 51 +37 +37 очень
душно
1009.9 1008.6
10 21.10 ЮЗ 9 н/о 9/0
[]
+33.6 +14.6 32 +35 +35 душно 1010.3 1009.0
12 21.10 ЮЗ 9 н/о н/о +28.7 +17.9 52 +33 +33 очень
душно
1012.1 1010.8
13 21.10 ЮЗ 9 н/о 8/0
[]
+27.8 +14.8 45 +30 +30 жарко 1012.9 1011.6 +41.4
15 21.10 ЮЗ 7 н/о н/о +25.7 +12.2 43 +27 +27 жарко 1013.5 1012.2
16 21.10 ЮЗ 7 н/о н/о +24.7 +13.6 50 +27 +27 жарко 1013.1 1011.8
18 21.10 ЮЗ 6 н/о н/о +23.5 +13.9 55 +26 +26 жарко 1012.0 1010.7
19 21.10 ЮЗ 6 н/о н/о +23.0 +13.2 54 +26 +26 жарко 1012.1 1010.8
21 21.10 ЮЗ 7 н/о н/о +22.3 +12.3 53 +25 +25 комфорт 1012.0 1010.7
22 21.10 Ю 6 н/о н/о +22.1 +12.4 54 +25 +25 комфорт 1012.4 1011.1
00 22.10 Ю 6 н/о н/о +27.5 +10.7 35 +28 +28 жарко 1013.4 1012.1
01 22.10 Ю 7 н/о н/о +32.3 +8.5 23 +31 +31 жарко 1013.0 1011.7 +22.1
03 22.10 Ю 6 н/о н/о +30.6 +14.5 38 +28 +28 жарко 1011.8 1010.5
04 22.10 Ю 4 н/о н/о +38.9 +1.8 10 +35 +35 очень
жарко
1010.9 1009.6
06 22.10 З 9 н/о н/о +32.0 +17.9 43 +36 +36 очень
душно
1009.6 1008.3
07 22.10 З 11 н/о н/о +30.5 +17.2 45 +34 +34 очень
душно
1009.4 1008.1
09 22.10 З 9 н/о н/о +32.4 +15.4 36 +35 +35 душно 1009.2 1007.9
10 22.10 З 7 н/о н/о +31.3 +16.5 41 +34 +34 душно 1009.7 1008.4
12 22.10 ЮЗ 8 н/о н/о +29.1 +15.6 44 +32 +32 душно 1011.3 1010.0
13 22.10 ЮЗ 8 н/о н/о +27.5 +16.5 51 +31 +31 душно 1011.7 1010.4 +39.7
15 22.10 ЮЗ 7 н/о н/о +25.3 +16.4 58 +29 +29 душно 1012.2 1010.9
16 22.10 ЮЗ 7 н/о н/о +24.8 +15.7 57 +28 +28 жарко 1012.1 1010.8
18 22.10 Ю 6 н/о н/о +24.8 +13.7 50 +27 +27 жарко 1011.5 1010.2
19 22.10 Ю 6 н/о 9/0
[]
+24.2 +13.7 52 +26 +26 жарко 1011.6 1010.3
21 22.10 ЮЗ 5 н/о н/о +22.5 +13.8 58 +26 +26 жарко 1011.9 1010.6
22 22.10 ЮЗ 4 н/о н/о +21.9 +13.5 59 +25 +25 комфорт 1012.4 1011.1

 

Местоположение метеостанции Onslow Airport (Западная Австралия, Австралия): широта -21.67 долгота 115.12 высота над уровнем моря 4 м.

В архиве по умолчанию представлена погода в Onslow Airport за последнюю неделю. Архивные данные за месяц целиком и за предыдущие месяцы, начиная с января 2011 года, Вы можете получить, выбрав интересующий диапазон дат из раскрывающегося списка и нажав кнопку "Ввод!".

Внимание! Время в таблицах - всемирное. Для получения местного времени необходимо прибавить поправку, которая в Onslow Airport равна 8 ч.

Смотрите также архив погоды в соседних городах и на ближайших метеорологических станциях:

Погода в Thevenard Island (Западная Австралия, Австралия) (27 км)
Погода в Barrow Island Airport (Западная Австралия, Австралия) (93 км)
Погода в Mardie (Западная Австралия, Австралия) (104 км)
Погода в Varanus Island (Западная Австралия, Австралия) (123 км)
Погода в Learmonth Airport (Западная Австралия, Австралия) (124 км)
Погода в Karratha Aero (Западная Австралия, Австралия) (201 км)
Погода в Roebourne Aero (Западная Австралия, Австралия) (234 км)
Погода в Paraburdoo Aero (Западная Австралия, Австралия) (318 км)
Погода в Carnarvon Airport (Западная Австралия, Австралия) (387 км)
Погода в Port Hedland Apardoo (Западная Австралия, Австралия) (392 км)

Пояснения к столбцам:

Ветер - указаны скорость ветра в м/с - средняя за 10 мин, порывы в срок и между сроками (в фигурных скобках) и направление, откуда дует ветер: С - северный, СВ - северо-восточный, В - восточный, ЮВ - юго-восточный, Ю - южный, ЮЗ - юго-западный, З - западный, СЗ - северо-западный.
Видимость - горизонтальная дальность видимости в метрах или километрах. При видимости от 1 до 10 км при отсутствии осадков обычно наблюдается дымка, при ухудшении видимости до 1 км и менее - туман. В сухую погоду видимость может ухудшаться дымом, пылью или мглою.
Явления - указаны атмосферные явления, наблюдавшиеся в срок или в последний час перед сроком; фигурными скобками обозначены явления, наблюдавшиеся между сроками (за 1-3 часа до срока); квадратными скобками обозначены град или гололедные отложения с указанием их диаметра в мм.
Облачность - указаны через наклонную черту общая и нижняя облачность в баллах и высота нижней границы облаков в метрах; квадратными скобками обозначены формы облаков: Ci - перистые, Cs - перисто-слоистые, Cc - перисто-кучевые, Ac - высококучевые, As - высокослоистые, Sc - слоисто-кучевые, Ns - слоисто-дождевые, Cu - кучевые, Cb - кучево-дождевые. Подробнее классификацию облаков см. в Атласе облаков (PDF).
T - Температура воздуха - температура, измеренная на высоте 2 м над землей.
Td - Температура точки росы - температура, при понижении до которой содержащийся в воздухе водяной пар достигнет насыщения.
f - Относительная влажность воздуха - влажноcть воздуха, измеренная на высоте 2 м над землей.
Te - Эффективная температура - температура, которую ощущает одетый по сезону человек в тени. Характеристика душности погоды. При расчете учитывается влияние влажности воздуха и скорости ветра на теплоощущения человека.
Tes - Эффективная температура на солнце - температура, которую ощущает человек, с поправкой на солнечный нагрев. Характеристика знойности погоды. Зависит от высоты солнца над горизонтом, облачности и скорости ветра. Ночью, в пасмурную погоду, а также при ветре 12 м/с и более поправка равна нулю.
P - Атмосферное давление - приведенное к уровню моря атмосферное давление.
Po - Атмосферное давление - измеренное на уровне метеостанции атмосферное давление.
Tmin - Минимальная температура - минимум температуры воздуха на высоте 2 м над землей.
Tmax - Максимальная температура - максимум температуры воздуха на высоте 2 м над землей.
R - Количество осадков - Количество выпавших осадков за период времени, мм. При наведении курсора мыши на число - период времени, за который выпало указанное количество осадков.
R24 - Количество осадков - Количество выпавших осадков за 24 часа, мм.
S - Снежный покров - Высота снежного покрова, см. При наведении курсора мыши на число - состояние снежного покрова и степень покрытия местности в баллах.